This demonstration page uses our WeatherBlox Daily Observations layout. Learn more.

Hourly Observations for October 29, 2020

Temp ( °F °C ) Dew Point ( °F °C ) Humidity (%) Winds ( mph kmh ) Pressure ( in mb ) Visibility ( mi km ) Precip ( " mm )
12:53 am 00:53 Cloudy 37 2.8 33 0.6 86 86 NNW 6 9 30.23 1024 10 16.0934 0 0
1:53 am 01:53 Cloudy 36 2.2 34 1.1 93 93 Calm 30.22 1023 10 16.0934 0 0
2:53 am 02:53 Cloudy 36 2.2 34 1.1 93 93 Calm 30.19 1023 10 16.0934 0 0
3:53 am 03:53 Mostly Cloudy 36 2.2 33 0.6 89 89 Calm 30.17 1022 10 16.0934 0 0
4:53 am 04:53 Clear 33 0.6 31 -0.6 92 92 ENE 3 6 30.18 1022 10 16.0934 0 0
5:53 am 05:53 Clear 31 -0.6 29 -1.7 92 92 Calm 30.19 1022 10 16.0934 0 0
6:35 am 06:35 Clear with Mist and Fog 29 -1.7 28 -2.2 96 96 Calm 30.27 1025 1.75 2.816345 0 0
6:53 am 06:53 Clear with Mist and Fog 29 -1.7 29 -1.7 100 100 NNW 5 7 30.2 1023 4 6.43736 0 0
7:53 am 07:53 Sunny 28 -2.2 27 -2.8 96 96 Calm 30.19 1023 10 16.0934 0 0
8:53 am 08:53 Sunny 34 1.1 32 0 92 92 Calm 30.19 1022 10 16.0934 0 0
9:53 am 09:53 Sunny 40 4.4 33 0.6 77 77 Calm 30.18 1022 10 16.0934 0 0
10:53 am 10:53 Sunny 43 6.1 33 0.6 68 68 Calm 30.16 1021 10 16.0934 0 0
11:53 am 11:53 Sunny 48 8.9 34 1.1 58 58 Calm 30.14 1021 10 16.0934 0 0
12:53 pm 12:53 Sunny 52 11.1 34 1.1 50 50 W 7 11 30.09 1019 10 16.0934 0 0
1:53 pm 13:53 Sunny 54 12.2 36 2.2 51 51 W 12 19 30.06 1018 10 16.0934 0 0
2:53 pm 14:53 Sunny 55 12.8 37 2.8 51 51 W 16 26 30.06 1018 10 16.0934 0 0
3:53 pm 15:53 Sunny 56 13.3 37 2.8 49 49 WNW 14 22 30.06 1018 10 16.0934 0 0
4:53 pm 16:53 Sunny 54 12.2 38 3.3 55 55 WSW 8 13 30.07 1018 10 16.0934 0 0
5:53 pm 17:53 Clear 50 10 35 1.7 57 57 W 8 13 30.09 1019 10 16.0934 0 0
6:53 pm 18:53 Clear 47 8.3 34 1.1 61 61 WNW 6 9 30.12 1020 10 16.0934 0 0
7:53 pm 19:53 Clear 46 7.8 34 1.1 63 63 W 8 13 30.15 1021 10 16.0934 0 0
8:53 pm 20:53 Clear 40 4.4 33 0.6 77 77 NW 8 13 30.16 1021 10 16.0934 0 0
9:53 pm 21:53 Clear 41 5 33 0.6 73 73 N 8 13 30.15 1021 10 16.0934 0 0
10:53 pm 22:53 Clear 38 3.3 33 0.6 83 83 NW 8 13 30.16 1022 10 16.0934 0 0
11:53 pm 23:53 Clear 35 1.7 31 -0.6 85 85 WNW 7 11 30.16 1022 10 16.0934 0 0

Powered by AerisWeather